Overview Statistics Trail Chart Weather Telemetry Raw packets
 

This is the latest recevied weather packets stored in our database for station/object 4S6DRJ-13. If no packets are shown the sender has not sent any weather packets the latest 10 day(s).

<< 409 410 411 412 413 414 415 >>
Time Temp. Humidity Pressure Rain* Wind** Luminosity Snow
1787841331 27.78° C 85% 1009.7 hPa 0 mm 0 m/s 0 W/m² -
1787841270 27.78° C 85% 1009.6 hPa 0 mm 0.45 m/s, 289° 0 W/m² -
1787841209 27.78° C 85% 1009.6 hPa 0 mm 0.45 m/s, 220° 0 W/m² -
1787841148 27.78° C 85% 1009.8 hPa 0 mm 0.89 m/s, 231° 0 W/m² -
1787841087 27.78° C 85% 1010.1 hPa 0 mm 0 m/s 0 W/m² -
1787841026 28.33° C 85% 1009.8 hPa 0 mm 0 m/s 0 W/m² -
1787840965 28.33° C 85% 1009.8 hPa 0 mm 0 m/s 0 W/m² -
1787840904 28.33° C 85% 1009.7 hPa 0 mm 0 m/s 0 W/m² -
1787840844 28.33° C 85% 1009.6 hPa 0 mm 0.45 m/s, 228° 0 W/m² -
1787840782 28.33° C 85% 1009.8 hPa 0 mm 0.89 m/s, 229° 0 W/m² -
1787840722 28.33° C 85% 1009.9 hPa 0 mm 0.45 m/s, 288° 0 W/m² -
1787840660 28.33° C 85% 1009.6 hPa 0 mm 0.45 m/s, 300° 0 W/m² -
1787840600 28.33° C 85% 1009.8 hPa 0 mm 0 m/s 0 W/m² -
1787840538 28.33° C 85% 1009.7 hPa 0 mm 0 m/s 0 W/m² -
1787840477 28.33° C 85% 1009.7 hPa 0 mm 0.45 m/s, 256° 0 W/m² -
1787840416 28.33° C 85% 1009.8 hPa 0 mm 0.45 m/s, 214° 0 W/m² -
1787840355 28.33° C 85% 1009.6 hPa 0 mm 0.45 m/s, 274° 0 W/m² -
1787840294 28.33° C 84% 1009.6 hPa 0 mm 0 m/s 0 W/m² -
1787840233 28.33° C 84% 1009.8 hPa 0 mm 0.45 m/s, 257° 0 W/m² -
1787840172 28.33° C 84% 1009.7 hPa 0 mm 0.89 m/s, 239° 0 W/m² -
1787840111 28.33° C 84% 1009.8 hPa 0 mm 0.89 m/s, 276° 0 W/m² -
1787840050 28.33° C 84% 1009.7 hPa 0 mm 0.45 m/s, 190° 0 W/m² -
1787839989 28.33° C 84% 1009.7 hPa 0 mm 0.89 m/s, 230° 0 W/m² -
1787839928 28.33° C 84% 1009.7 hPa 0 mm 0 m/s 0 W/m² -
1787839867 28.33° C 84% 1009.7 hPa 0 mm 0 m/s 0 W/m² -

* Rain latest hour (hover to see other rain measurements)
** Current wind speed in m/s (hover to see current wind gust speed)